Regional Weather Roundup
Issued by NWS Upton, NY

Current Version | Previous Version | Text Only | Print | Product List | Glossary Off
Versions: 1 2 3 4 5 6 7 8 9 10 11 12 13 14 15 16 17 18 19 20 21 22 23 24 25 26 27

000
ASUS41 KOKX 011808
RWROKX

REGIONAL WEATHER ROUNDUP
NATIONAL WEATHER SERVICE NEW YORK NY
100 PM EST THU DEC 01 2016

NOTE: "FAIR" INDICATES FEW OR NO CLOUDS BELOW 12,000 FEET WITH NO
SIGNIFICANT WEATHER AND/OR OBSTRUCTIONS TO VISIBILITY.

NYZ071-072-176-178-NJZ106-104-011900-
NEW YORK CITY METRO AREA

CITY           SKY/WX    TMP DP  RH WIND       PRES   REMARKS
Central Park   MOSUNNY   52  33  48 VRB5G21   29.67R
Wall St Helipt MOCLDY    55  37  50 W18G33    29.66R
Bronx Bot Gard   N/A     54  32  43 W17       29.64R
LaGuardia APRT MOSUNNY   54  33  45 W22G30    29.64R
Kennedy INTL   MOSUNNY   56  34  43 W18       29.65R
Breezy Point   NOT AVBL
Newark/Liberty MOSUNNY   54  35  48 W24G30    29.66R
Teterboro      MOSUNNY   53  33  46 W14       29.64R
$$

NYZ177-179-078>081-011900-
LONG ISLAND NEW YORK

CITY           SKY/WX    TMP DP  RH WIND       PRES   REMARKS
Jones Beach    NOT AVBL
Matinecock PT  NOT AVBL
Farmingdale    MOSUNNY   55  37  50 W15G21    29.62S
MacArthur/ISP  MOSUNNY   56  37  49 W16G26    29.60S
Shirley        MOSUNNY   57  40  52 NW12G18   29.61S
Westhampton    SUNNY     56  37  49 W18       29.61S
Southampton      N/A     57  41  54 NW12      29.56R
Bridgehampton    N/A     55  43  62 S3        29.58S
East Hampton     N/A     55  39  54 W10G23    29.58S
Montauk          N/A     55  42  61 W14G21    29.57F
$$

NYZ052-065-067-011900-
HUDSON VALLEY

CITY           SKY/WX    TMP DP  RH WIND       PRES   REMARKS
White Plains   MOSUNNY   52  35  52 W15       29.61S
Newburgh       PTSUNNY   48  37  66 W21       29.64R
Montgomery     CLOUDY    49  34  56 W12G20    29.63R
Poughkeepsie   CLOUDY    49  33  54 W18G25    29.62R
Albany         LGT RAIN  45  36  70 NW12      29.61R
$$

NJZ001-105-106-008-010-013-015-019>022-104-011900-
NEW JERSEY

CITY           SKY/WX    TMP DP  RH WIND       PRES   REMARKS
Newark/Liberty MOSUNNY   54  35  48 W24G30    29.66R
Teterboro      MOSUNNY   53  33  46 W14       29.64R
Caldwell       CLOUDY    51  33  50 W15G24    29.67R
Somerville     CLOUDY    50  32  50 W10G26    29.68R
Linden         CLOUDY    52  35  51 NW20G28   29.67R
Sussex         CLOUDY    48  33  56 W14G22    29.66R
Andover          N/A     47  32  56 VRB6      29.67R
Trenton        PTSUNNY   52  32  46 W14G29    29.70S
Millville      MOSUNNY   57  39  51 W14G25    29.72S
Atlantic City  SUNNY     57  36  45 W15G24    29.70S
Wrightstown    PTSUNNY   53  37  54 NW15      29.67S
Toms River     MOSUNNY   56  37  49 NW16G26   29.69S
Belmar         SUNNY     55  36  48 W18G29    29.68S
$$

PAZ047>061-062-071-011900-
EASTERN PENNSYLVANIA

CITY           SKY/WX    TMP DP  RH WIND       PRES   REMARKS
Philadelphia   PTSUNNY   53  32  44 W18G29    29.73R
Allentown      CLOUDY    47  34  60 W12       29.71S
Scranton       CLOUDY    44  33  65 W14       29.67S
$$

CTZ002-004>006-009-010-012-RIZ004-006-007-MAZ004-011-015-011900-
SOUTHERN NEW ENGLAND
 IN CT

CITY           SKY/WX    TMP DP  RH WIND       PRES   REMARKS
Bradley INTL   PTSUNNY   53  33  46 W18G25    29.56S
Hartford       PTSUNNY   55  39  54 W9        29.56S
Danbury        PTSUNNY   49  35  58 NW15G24   29.62R
Wtrbury/Oxford PTSUNNY   50  34  53 NW9G22    29.61R
Bridgeport     SUNNY     58  36  43 W16G22    29.59S
Meriden        CLOUDY    56  37  49 NW13      29.57S
New Haven      MOSUNNY   55  37  50 W10G20    29.58S
Chester          N/A     54  37  54 NW10G16   29.56S
Groton         PTSUNNY   61  41  47 NW13G22   29.54F
Wilimantic     PTSUNNY   55  39  54 W10       29.55S

 IN RI

CITY           SKY/WX    TMP DP  RH WIND       PRES   REMARKS
Providence     MOSUNNY   58  36  43 W20G25    29.53S
Block Island   SUNNY     55  43  63 W20G26    29.55F
Westerly       MOSUNNY   57  42  57 SW12      29.55S
 IN MA

CITY           SKY/WX    TMP DP  RH WIND       PRES   REMARKS
Boston         MOSUNNY   56  39  53 W17G28    29.49S
Worcester      PTSUNNY   47  35  63 W22G30    29.51S
Westfield      PTSUNNY   53  35  50 NW20      29.56R
Provincetown   SUNNY     55  45  68 W12       29.49F
Nantucket      SUNNY     56  47  71 W18G26    29.52S
$$

ANZ330-335-338-340-345-350-353-355-011900-
COASTAL MARINE OBSERVATIONS


STATION/POSITION TIME  SKY/WX   TEMP    WIND        PRES    VSBY  WAVE
                                AIR SEA DIR/SP/G                  HT/PER
                 (UTC)          (F)     (DEG/KT/KT) (MB)    (MI)  (FT/S)
NY HARB ENTRANCE 1650            53 54  280/ 19/ 23 1003.5          5/ 8
20 S FIRE ISLAND 1650            53 55  280/ 19/ 23 1003.1          7/ 8
GREAT SOUTH BAY  1715            51 47                N/A
23 SSW MONTAUK P 1650            55 56  270/ 19/ 25 1002.0          7/ 8
15 E BARNEGAT LI 1730               54                N/A           5/ 9
HUDSON CANYON    1650            56 60              1003.6          9/ 8
KINGS POINT      1730            52 51              1003.1
EXECUTION ROCKS  1745            54     270/ 12/ 17   N/A
CENTRAL LI SOUND 1730            53 52  260/ 16/ 19   N/A           3/ 5
EASTERN LI SOUND NOT AVBL
ROBBINS REEF     1730            52     260/ 23/ 26 1003.9
$$


>>>>>>>>>>>>>>>>>>>>>>>>>>>> KEY <<<<<<<<<<<<<<<<<<<<<<<<<<<
>                                                          <
>     SKY/WX - Sky Condition/Present Weather               <
>     TMP    - Temperature in Fahrenheit                   <
>     DP     - Dew Point in Fahrenheit                     <
>     RH     - Relative Humidity in Percent                <
>     WIND   - Direction (from) and Speed in MPH           <
>     PRES   - Mean Sea Level Pressure (inches of Hg)      <
>     WCI    - Wind Chill Index                            <
>     VSB    - VISIBILITY IN MILES                         <
>     HX     - HEAT INDEX                                  <
>     TC     - TEMPERATURE IN CELSIUS                      <
>     VRB    - VARIABLE WIND DIRECTION                     <
>                                                          <
>>>>>>>>>>>>>>>>>>>>>>>>>>>> KEY <<<<<<<<<<<<<<<<<<<<<<<<<<<




USA.gov is the U.S. government's official web portal to all federal, state and local government web resources and services.